Location: Karcze
(52.0945°N, 22.4786°E)
Time: 02:50:43
(UTC+00:00)

Transit 2A Rocket - Pass Details

Date: 31 July 2021
Orbit: 586 x 917 km, 66.7° (Epoch: 27 September)

Event Time Altitude Azimuth Distance (km) Brightness Sun altitude
Rises 21:29:17 0° 318° (NW) 3,234 9.4 -18.4°
Reaches altitude 10° 21:31:38 10° 314° (NW) 2,355 8.4 -18.5°
Maximum altitude 21:36:55 53° 239° (WSW) 1,021 5.5 -18.7°
Enters shadow 21:39:17 33° 181° (S) 1,418 5.8 -18.8°
Drops below altitude 10° 21:42:37 10° 164° (SSE) 2,532 - -18.9°
Sets 21:45:14 0° 160° (SSE) 3,498 - -19.0°
